sat.trackr.live / text

‹ back to catalog

STARLINK-11652 [DTC]

NORAD 63315 · 2025-057J

PAYLOAD ACTIVE UNKNOWN

§ Identity

Operator
Country
US
Launch date
2025-03-18
Launch site
AFETR
Launch vehicle
Mass (kg)
RCS (m²)

Purposes: comms

External: N2YO · Heavens-Above · Gunter

§ Orbital elements

Epoch: 2026-05-24T18:30:55.450368Z

Period
91.67 min
Inclination
43.0009°
Eccentricity
0.0001625
Mean motion
15.70875378 rev/d
Perigee alt
355.3 km
Apogee alt
357.5 km
Semi-major
6,734.5 km
B*
1.1027e-3
RAAN
165.9010°
Arg perigee
68.4268°
Mean anomaly
291.6773°
Rev number
6,917

§ Raw data

STARLINK-11652 [DTC]1 63315U 25057J   26144.77147512  .00143725  00000+0  11027-2 0  99922 63315  43.0009 165.9010 0001625  68.4268 291.6773 15.70875378 69175

JSON: /api/v1/satellites/63315 · /tle

For live sub-satellite position, see the globe view (requires WebGL).

§ Visibility from observer

Set your observer location to see the next 7 days of passes ≥ 10°. The values pass through the URL so the page stays shareable.

No JS? Fill the form by hand. The geolocation button needs JavaScript.